Camarillo, CA

7:09 PM PDT on July 22, 2017 (GMT -0700)
Camarillo

Weather History for KCMA - July, 2013

Change the Weather History Date:

Friday, July 12, 2013

  Actual Average Record
Temperature  
Mean Temperature 73 °F 67 °F  
Max Temperature 81 °F 76 °F 88 °F (1983)
Min Temperature 65 °F 58 °F 42 °F (1924)
Degree Days  
Heating Degree Days 0 0  
Month to date heating degree days 0 1  
Since 1 June heating degree days 0 44  
Since 1 July heating degree days 0 1  
Cooling Degree Days 8 2  
Month to date cooling degree days 109 24  
Year to date cooling degree days 361 78  
Since 1 June cooling degree days 255 47  
Growing Degree Days 22 (Base 50)    
Moisture  
Dew Point 60 °F    
Average Humidity 69    
Maximum Humidity 87    
Minimum Humidity 51    
Precipitation  
Precipitation 0.00 in 0.00 in 0.01 in (1992)
Month to date precipitation T 0.01  
Year to date precipitation 2.15 10.99  
Since 1 July precipitation T  
Sea Level Pressure  
Sea Level Pressure 29.92 in    
Wind  
Wind Speed 4 mph (WSW)    
Max Wind Speed 13 mph    
Max Gust Speed 20 mph    
Visibility 6 miles    
Events      
T = Trace of Precipitation, MM = Missing Value Source: NWS Daily Summary

Daily Weather History Graph

Daily Weather History Graph

Search for Another Location

Airport or City:

Trip Planner

Search our weather history database for the weather conditions in past years. The results will help you decide how hot, cold, wet, or windy it might be!

Date:

Astronomy

Jul. 12, 2013 Rise Set
Actual Time 5:54 AM PDT 8:09 PM PDT
Civil Twilight 5:25 AM PDT 8:38 PM PDT
Nautical Twilight 4:50 AM PDT 9:13 PM PDT
Astronomical Twilight 4:11 AM PDT 9:51 PM PDT
Moon 10:02 AM PDT (7/12) 10:37 PM PDT (7/12)
Length of Visible Light 15h 13m
Length of Day
14h 15m
Waxing Crescent, 18% of the Moon is Illuminated
Jul 12
Waxing Crescent
Jul 15
First Quarter
Jul 22
Full
Jul 29
Last Quarter
Aug 6
New

Hourly Weather History & Observations

Time (PDT) Temp. Heat Index Dew Point Humidity Pressure Visibility Wind Dir Wind Speed Gust Speed Precip Events Conditions
12:55 AM 69.1 °F - 59.0 °F 70% 29.94 in 9.0 mi Calm Calm - N/A   Clear
1:20 AM 68.0 °F - 59.0 °F 73% 29.92 in 9.0 mi Calm Calm - N/A   Scattered Clouds
1:55 AM 68.0 °F - 59.0 °F 73% 29.93 in 9.0 mi Calm Calm - N/A   Clear
2:34 AM 66.2 °F - 59.0 °F 78% 29.91 in 8.0 mi Calm Calm - N/A   Partly Cloudy
2:53 AM 66.2 °F - 59.0 °F 78% 29.91 in 7.0 mi Calm Calm - N/A   Mostly Cloudy
2:55 AM 66.9 °F - 59.0 °F 76% 29.93 in 7.0 mi Calm Calm - N/A   Mostly Cloudy
3:10 AM 66.2 °F - 59.0 °F 78% 29.90 in 7.0 mi Calm Calm - N/A   Overcast
3:55 AM 66.9 °F - 57.9 °F 73% 29.93 in 8.0 mi Calm Calm - N/A   Scattered Clouds
4:51 AM 64.4 °F - 59.0 °F 83% 29.92 in 3.0 mi Calm Calm - N/A   Haze
4:55 AM 64.9 °F - 59.0 °F 81% 29.94 in 2.0 mi Calm Calm - N/A   Haze
4:57 AM 64.4 °F - 60.8 °F 88% 29.91 in 1.8 mi Calm Calm - N/A   Haze
5:04 AM 64.4 °F - 60.8 °F 88% 29.92 in 1.0 mi Calm Calm - N/A   Haze
5:11 AM 64.4 °F - 60.8 °F 88% 29.91 in 0.5 mi Calm Calm - N/A   Haze
5:55 AM 64.9 °F - 59.0 °F 81% 29.95 in 1.2 mi Calm Calm - N/A   Haze
5:59 AM 64.4 °F - 59.0 °F 83% 29.92 in 2.0 mi Calm Calm - N/A   Haze
6:16 AM 64.4 °F - 59.0 °F 83% 29.92 in 1.5 mi Calm Calm - N/A   Haze
6:28 AM 64.4 °F - 59.0 °F 83% 29.92 in 2.0 mi Calm Calm - N/A   Haze
6:48 AM 64.4 °F - 59.0 °F 83% 29.92 in 1.0 mi Calm Calm - N/A   Haze
6:55 AM 64.9 °F - 60.1 °F 84% 29.95 in 1.8 mi Calm Calm - N/A   Haze
7:55 AM 66.9 °F - 60.1 °F 79% 29.96 in 1.8 mi Calm Calm - N/A   Haze
8:17 AM 66.2 °F - 60.8 °F 83% 29.93 in 0.8 mi Calm Calm - N/A   Haze
8:55 AM 70.0 °F - 61.0 °F 73% 29.96 in 1.0 mi West 4.6 mph - N/A   Haze
8:59 AM 69.8 °F - 60.8 °F 73% 29.93 in 3.0 mi West 3.5 mph - N/A   Haze
9:55 AM 73.9 °F - 62.1 °F 66% 29.96 in 5.0 mi SW 5.8 mph - N/A   Haze
10:22 AM 75.2 °F - 62.6 °F 65% 29.93 in 7.0 mi SW 9.2 mph - N/A   Partly Cloudy
10:55 AM 78.1 °F - 63.0 °F 60% 29.95 in 8.0 mi SSW 8.1 mph - N/A   Partly Cloudy
11:55 AM 79.0 °F - 63.0 °F 58% 29.95 in 8.0 mi West 10.4 mph - N/A   Partly Cloudy
12:55 PM 79.0 °F - 62.1 °F 56% 29.95 in 9.0 mi West 9.2 mph - N/A   Clear
1:55 PM 80.1 °F 81.1 °F 61.0 °F 52% 29.94 in 10.0 mi SSW 8.1 mph - N/A   Clear
2:55 PM 79.0 °F - 60.1 °F 52% 29.93 in 10.0 mi West 11.5 mph 18.4 mph N/A   Clear
3:55 PM 77.0 °F - 60.1 °F 56% 29.92 in 10.0 mi West 10.4 mph - N/A   Clear
4:55 PM 75.0 °F - 60.1 °F 60% 29.91 in 10.0 mi West 9.2 mph - N/A   Clear
5:55 PM 71.1 °F - 60.1 °F 68% 29.91 in 9.0 mi SW 9.2 mph 19.6 mph N/A   Clear
6:17 PM 71.6 °F - 60.8 °F 69% 29.88 in 9.0 mi West 8.1 mph - N/A   Mostly Cloudy
6:44 PM 69.8 °F - 59.0 °F 68% 29.88 in 7.0 mi West 6.9 mph - N/A   Overcast
6:55 PM 69.1 °F - 59.0 °F 70% 29.91 in 8.0 mi WNW 8.1 mph - N/A   Overcast
7:16 PM 69.8 °F - 60.8 °F 73% 29.88 in 7.0 mi West 4.6 mph - N/A   Overcast
7:55 PM 66.9 °F - 59.0 °F 76% 29.91 in 5.0 mi Calm Calm - N/A   Haze
8:55 PM 68.0 °F - 59.0 °F 73% 29.91 in 8.0 mi NW 3.5 mph - N/A   Overcast
9:21 PM 68.0 °F - 59.0 °F 73% 29.89 in 7.0 mi Calm Calm - N/A   Overcast
9:55 PM 68.0 °F - 59.0 °F 73% 29.93 in 7.0 mi Calm Calm - N/A   Overcast
10:55 PM 66.9 °F - 59.0 °F 76% 29.93 in 7.0 mi Calm Calm - N/A   Scattered Clouds
11:55 PM 66.9 °F - 59.0 °F 76% 29.93 in 7.0 mi Calm Calm - N/A   Clear